Regional Weather Roundup
Issued by NWS Wilmington, NC

Home | Current Version | Previous Version | Text Only | Print | Product List | Glossary On
Versions: 1 2 3 4 5 6 7 8 9 10 11 12 13 14 15 16 17 18 19 20 21 22 23 24 25 26 27 28 29 30 31 32 33 34 35 36 37 38 39 40 41 42 43 44 45 46 47 48 49 50
396
ASUS42 KILM 210513
RWRILM
RWRILM
REGIONAL HOURLY WEATHER ROUNDUP
NATIONAL WEATHER SERVICE WILMINGTON NC
100 AM EDT FRI JUL 21 2017

NOTE: "FAIR" INDICATES FEW OR NO CLOUDS BELOW 12,000 FEET WITH NO
SIGNIFICANT WEATHER AND/OR OBSTRUCTIONS TO VISIBILITY.

...............WFO WILMINGTON COUNTY WARNING AREA...............

......COASTAL NC AND SC COUNTIES......

CITY           SKY/WX    TMP DP  RH WIND       PRES   REMARKS
WILMINGTON     MOCLDY    78  76  93 SW5       30.04S
N MYRTLE BEACH CLEAR     79  77  94 SW3       30.03S
MYRTLE BEACH   CLEAR     79  75  87 W5        30.04S

......INLAND NC AND SC COUNTIES.......

CITY           SKY/WX    TMP DP  RH WIND       PRES   REMARKS
LUMBERTON      CLEAR     77  75  93 SW3       30.02S
ELIZABETHTOWN  NOT AVBL
WHITEVILLE     CLEAR     77  74  91 CALM      30.03S
FLORENCE       MOCLDY    78  75  90 SW6       30.04S
DARLINGTON     CLEAR     78  75  90 SW6       30.03F
KINGSTREE      FAIR      73  72  94 CALM      30.04S
HARTSVILLE     FAIR      73  72  94 CALM      30.03F
BENNETTSVILLE  FAIR      81  77  89 CALM      30.02F
CONWAY         FAIR      75  73  94 SW3       30.04S
GEORGETOWN     FAIR      73  73 100 W3        30.05S
MARION         FAIR      75  72  88 SW3       30.04S

....................REST OF NORTH CAROLINA......................

.........EASTERN NC.........

CITY           SKY/WX    TMP DP  RH WIND       PRES   REMARKS
CAPE HATTERAS  CLEAR     80  75  84 SW8       30.02F
JACKSONVILLE   CLEAR     76  74  93 S6        30.03F
MOREHEAD CITY  CLEAR     81  78  91 SW10      30.03F
KENANSVILLE    CLEAR     77  73  88 CALM      30.03S
NEW BERN       CLEAR     77  75  93 SW7       30.03F
ELIZABETH CITY MOCLDY    80  77  90 S12       30.00S

.........CENTRAL NC.........

CITY           SKY/WX    TMP DP  RH WIND       PRES   REMARKS
RALEIGH DURHAM MOCLDY    79  72  79 SW6       30.02S
ROCKY MOUNT    CLOUDY    79  76  90 S8        30.01S
ROANOKE RAPIDS NOT AVBL
FAYETTEVILLE   CLEAR     83  75  77 SW7       30.02S HX  90
HOFFMAN        CLEAR     76  73  91 SW3       30.02S

.........WESTERN NC.........

CITY           SKY/WX    TMP DP  RH WIND       PRES   REMARKS
CHARLOTTE      PTCLDY    79  70  74 S3        30.05S
GREENSBORO     MOCLDY    80  74  81 W6        30.04S
HICKORY        NOT AVBL
BOONE          NOT AVBL
ASHEVILLE      NOT AVBL

.....................REST OF SOUTH CAROLINA.....................

.........EASTERN SC.........

CITY           SKY/WX    TMP DP  RH WIND       PRES   REMARKS
CHARLESTON     CLEAR     77  74  90 S3        30.04F
BEAUFORT MCAS  CLEAR     76  73  91 W3        30.05S
HILTON HEAD    CLEAR     77  73  88 CALM      30.05F

.........CENTRAL SC.........

CITY           SKY/WX    TMP DP  RH WIND       PRES   REMARKS
COLUMBIA       CLEAR     78  70  76 W5        30.03R
ORANGEBURG     CLEAR     74  72  93 S5        30.04F
SUMTER SHAW    CLEAR     75  72  90 S6        30.01F

.........WESTERN SC.........

CITY           SKY/WX    TMP DP  RH WIND       PRES   REMARKS
GREENVILLE     NOT AVBL
ROCK HILL      CLEAR     75  70  84 SW5       30.05F
ANDERSON       CLEAR     77  72  84 CALM      30.05R
CLEMSON        NOT AVBL
GREENWOOD      CLEAR     78  70  76 SW7       30.06S


...................COASTAL AND OFFSHORE REPORTS..................

................LOCAL PIERS AND NC RESERVE................


STATION/POSITION TIME  SKY/WX   TEMP    WIND        PRES    VSBY
                                AIR SEA DIR/SP/G
                 (UTC)          (F)     (DEG/KT/KT) (MB)    (MI)
JOHNY MRCER PIER 0448            80 81  250/  6/  8 1016.1F
NC RESRV MASNBRO NOT AVBL
OCEAN CREST PIER NOT AVBL
SPRINGMAID  PIER 0448                               1016.5R


................COASTAL AND OFFSHORE BUOYS................


STATION/POSITION TIME  SKY/WX   TEMP    WIND        PRES    VSBY
                                AIR SEA DIR/SP/G
                 (UTC)          (F)     (DEG/KT/KT) (MB)    (MI)
DIMNDSHOAL 41025 0450            83 85  230/ 14/ 16 1016.6F
WVE H/P(F/S)=  3/ 7 SWL H/P/D(F/S/D)=  2/150/ 7

CAPE LOOKOUT     0400            81     230/  8/ 12 1016.9R
ONSLOW BAY 41036 NOT AVBL
ONSLOW BAY 41064 0408            81 82  240/ 14/ 17 1017.4S
ONSLOW BAY 41159 0443               82                N/A
WVE H/P(F/S)=  3/ 3 SWL H/P/D(F/S/D)=  2/ 90/13

MASNBO INL 41110 0429               80                N/A
WVE H/P(F/S)=  2/ 8

WILM HARBR 41108 0430               82                N/A
WVE H/P(F/S)=  3/ 4

27SE WRITB 41037 0408            81 81  220/ 12/ 16 1017.3S
FRYING PAN 41013 0450            83 84  230/ 12/ 16 1017.0F
WVE H/P(F/S)=  3/ 8 SWL H/P/D(F/S/D)=  2/130/ 8

SUNST NRSH 41024 0408            80 80  230/  8/ 12 1016.9F
CAPRS NRSH 41029 0408            80 83  230/ 14/ 17 1017.3R
EDISTO     41004 0450            82 84  230/ 10/ 14 1016.9F
WVE H/P(F/S)=  3/ 7 SWL H/P/D(F/S/D)=  2/130/ 7



..........OFFSHORE BUOYS BEYOND 100 NM OFFSHORE...........
.....IN A TRIANGLE---HAT TO BERMUDA TO BAHAMAS TO HAT.....


STATION/POSITION TIME  SKY/WX   TEMP    WIND        PRES    VSBY
                                AIR SEA DIR/SP/G
                 (UTC)          (F)     (DEG/KT/KT) (MB)    (MI)
150E HAT   41001 0450            82 82  210/ 14/ 17 1017.6F
WVE H/P(F/S)=  4/ 7 SWL H/P/D(F/S/D)=  3/150/ 7

W BERMUDA  41048 0450            83 83  230/ 10/ 14 1020.1R
WVE H/P(F/S)=  4/ 8 SWL H/P/D(F/S/D)=  3/140/ 8

ATLANTIC S 41049 0350            82 83   90/  8/ 10 1023.2
WVE H/P(F/S)=  4/ 8 SWL H/P/D(F/S/D)=  5/120/ 8

E BAHAMAS  41046 0450            82 84   80/ 12/ 16 1020.4F
WVE H/P(F/S)=  5/ 8 SWL H/P/D(F/S/D)=  3/130/ 8

NE BAHAMAS 41047 0450            83 85  180/  6/  8 1021.0F
WVE H/P(F/S)=  4/ 9 SWL H/P/D(F/S/D)=  3/140/ 9

120E CANVRL41010 0450            83 85  190/  8/ 10 1017.9S
WVE H/P(F/S)=  3/ 7 SWL H/P/D(F/S/D)=  2/ 70/ 7


END




USA.gov is the U.S. government's official web portal to all federal, state and local government web resources and services.